Regional Weather Roundup
Issued by NWS Jackson, KY

Home | Current Version | Previous Version | Graphics & Text | Print | Product List | Glossary On
Versions: 1 2 3 4 5 6 7 8 9 10 11 12 13 14 15 16 17 18 19 20 21 22 23 24 25 26 27
000
ASUS43 KJKL 190410
RWRJKL

EAST KENTUCKY HOURLY WEATHER ROUNDUP
NATIONAL WEATHER SERVICE JACKSON KY
1200 AM EDT SAT AUG 19 2017

NOTE: "FAIR" INDICATES FEW OR NO CLOUDS BELOW 12,000 FEET WITH
NO SIGNIFICANT WEATHER AND/OR OBSTRUCTIONS TO VISIBILITY.

* THESE REPORTS ARE NOT UNDER NWS QUALITY CONTROL AND MAY NOT
  REPORT WEATHER SUCH AS PRECIPITATION AND FOG.

KYZ079-080-083-085-087-088-110-112-115-119-120-190500
...EASTERN KENTUCKY...

CITY           SKY/WX    TMP DP  RH WIND       PRES   REMARKS
JACKSON          N/A     70  63  78 CALM      30.00R
LONDON           N/A     67  65  93 CALM      30.01R
SOMERSET*        N/A     64  64 100 CALM      30.01S
MONTICELLO*      N/A     64  63  96 NE8       30.02S FOG
WILLIAMSBURG*    N/A     66  66 100 CALM      30.01S
MIDDLESBORO*     N/A     67  66  96 CALM      30.02S
HARLAN APT*    CLOUDY    64  64 100 CALM      30.04R VSB 1/2
PIKE CO APT*     N/A     71  66  86 CALM      30.01R
BIG SANDY APT*   N/A     71  65  81 CALM      29.99S
MOREHEAD APT*    N/A     73  63  68 W5        29.99S
$$

KYZ035-036-041-042-044-050-067-078-099-190500
...CENTRAL KENTUCKY...

CITY           SKY/WX    TMP DP  RH WIND       PRES   REMARKS
MT STERLING*     N/A     70  64  83 W5        29.99S
FLEMING/MASON*   N/A     69  64  82 S5        29.97S
DANVILLE*        N/A     64  63  94 CALM      30.00S
LEXINGTON        N/A     71  63  75 S6        29.97F
FRANKFORT        N/A     70  64  81 SW3       29.95F
LOUISVILLE       N/A     75  66  73 SW3       29.94S
LEBANON*         N/A     73  64  73 S5        29.98S
GLASGOW*         N/A     67  67 100 CALM      29.98S
BOWLING GREEN    N/A     75  68  78 SW5       29.97F
$$

KYZ091>093-OHZ055-061-077-WVZ005-015-034-035-042-190500
...SOUTHERN OHIO/WEST VIRGINIA...

CITY           SKY/WX    TMP DP  RH WIND       PRES   REMARKS
COVINGTON        N/A     72  66  81 W5        29.94S
COLUMBUS         N/A     73  65  75 W3        29.91S
DAYTON           N/A     67  63  87 W7        29.95R
WILMINGTON       N/A     67  65  93 SW3       29.94R
HUNTINGTON       N/A     71  66  84 SW3       29.95R
CHARLESTON       N/A     69  66  90 CALM      29.96R
PINEVILLE*     CLOUDY    67  66  96 MISG      30.06S FOG
BECKLEY          N/A     65  63  93 CALM      30.05S
BLUEFIELD        N/A     66  64  93 W5        30.08R
LOGAN CO APT*    N/A     70  66  88 CALM      30.00S
$$

VAZ002-007-008-TNZ017-027-036-066-071-190500
...SOUTHWEST VIRGINIA/EAST TENNESSEE...

CITY           SKY/WX    TMP DP  RH WIND       PRES   REMARKS
WISE*            N/A     68  61  77 W3        30.09R
JONESVILLE*      N/A     64  64 100 CALM      30.04R
ABINGDON*        N/A     71  67  85 CALM      30.05S
BRISTOL          N/A     70  68  93 CALM      30.02R
MORRISTOWN*    MOCLDY    70  66  88 CALM      30.00R
SEVIERVILLE*   CLEAR     72  66  83 CALM      30.00R
KNOXVILLE        N/A     74  65  73 CALM      29.99S
LAFOLLETTE*    CLEAR     66  66 100 CALM      30.04S
OAK RIDGE        N/A     70  66  87 CALM      30.01R
CROSSVILLE       N/A     66  63  90 CALM      30.06S
NASHVILLE        N/A     72  67  84 S6        30.00S
$$

...KEY TO REMARKS...
VSB - VISIBILITY IN MILES
WCI - WIND CHILL INDEX
HX  - HEAT INDEX

$$




USA.gov is the U.S. government's official web portal to all federal, state and local government web resources and services.